Tracking 19212 objects as of 17-Jul-2018
HD Live streaming from Space Station
objects crossing your sky now

FENGYUN 1C DEB

Track FENGYUN 1C DEB now!
10-day predictions


NORAD ID: 30381
Int'l Code: 1999-025ACU
Perigee: 840.6 km
Apogee: 930.4 km
Inclination: 99.0 °
Period: 102.5 minutes
Semi major axis: 7256 km
RCS: 0.0084 m2 (small)
Launch date: May 10, 1999
Source: People's Republic of China (PRC)
Launch site: Taiyaun Space Center, China (TSC)

Note: This is SATELLITE DEBRIS
aabbcc
Your satellite tracking list
Your tracking list is empty




NASA's NSSDC Master Catalog

Two Line Element Set (TLE):
1 30381U 99025ACU 18196.53882552 +.00000175 +00000-0 +13534-3 0  9995
2 30381 099.0375 228.8163 0061882 099.1935 261.6239 14.04459462540985
Source of the keplerian elements: AFSPC